Location: Newark
(43.6583°N, 1.6617°E)
Time: 01:09:01
(UTC+00:00)

Transit 4A - Pass Details

Date: 02 September 2019
Orbit: 865 x 980 km, 66.8° (Epoch: 19 September)

Event Time Altitude Azimuth Distance (km) Brightness Sun altitude
Rises 21:28:53 0° 332° (NNW) 3,651 12.1 -29.1°
Reaches altitude 10° 21:33:36 10° 3° (N) 2,675 10.8 -29.7°
Maximum altitude 21:35:45 12° 24° (NNE) 2,534 10.4 -29.9°
Drops below altitude 10° 21:37:53 10° 44° (NE) 2,645 10.3 -30.2°
Enters shadow 21:39:00 - 54° (NE) 2,799 10.4 -30.3°
Sets 21:42:27 0° 76° (ENE) 3,554 - -30.7°
